Theta_e
288 287 285 284 283 282 281 280 280 279 279 278 277 277 277 277 276 276 277 277 277 276 276 277 277 277 277 278 278 279 279 280 282 281 281 280 282 282 284 284 285 289 290
288 286 284 283 281 280 280 279 279 278 278 277 276 276 275 275 275 275 275 275 274 274 274 274 274 274 274 275 275 276 276 277 279 280 279 280 279 280 281 281 284 288 288
287 285 283 281 280 279 279 279 278 277 276 276 275 275 274 274 273 273 273 273 273 273 273 273 274 274 274 274 274 274 275 275 276 277 278 278 278 278 279 282 285 288 289
285 283 281 280 279 279 278 277 277 276 275 274 274 274 273 273 272 273 273 272 273 273 274 274 274 274 274 274 274 274 275 275 275 276 277 277 278 279 279 281 286 287 291
283 282 280 279 279 278 277 276 275 274 274 273 273 272 272 272 272 272 273 273 274 274 274 274 274 274 274 275 275 275 275 276 276 276 277 278 278 279 282 284 286 288 295
281 280 280 278 277 277 276 275 274 273 273 272 272 272 272 272 272 273 274 274 274 273 273 274 274 274 274 274 275 276 276 277 277 277 277 278 279 279 280 282 285 287 294
280 280 278 277 276 275 275 274 273 272 272 272 271 272 272 271 272 273 274 273 273 273 273 273 274 274 275 274 274 275 275 276 278 279 280 280 280 281 281 282 283 286 290
280 278 276 276 275 274 273 272 272 272 271 271 271 271 270 271 272 272 273 273 273 273 274 274 274 274 275 275 275 275 275 275 277 277 278 279 280 280 281 282 283 285 287
279 276 275 274 273 272 272 271 271 271 271 271 271 270 270 269 270 272 274 274 274 274 275 275 275 275 276 275 276 277 276 276 276 277 278 279 282 281 281 282 283 287 287
277 275 274 273 273 271 271 271 270 270 270 270 270 269 269 269 271 273 274 275 275 275 275 275 274 273 274 275 275 275 276 276 277 279 279 280 281 282 282 282 283 284 289
276 274 273 272 272 271 270 270 269 269 269 268 269 270 271 272 271 273 274 275 275 275 274 273 273 272 274 274 275 275 275 276 276 278 279 280 282 281 281 282 283 285 288
273 272 271 270 270 270 270 269 268 268 268 269 270 272 272 272 272 272 274 275 275 273 272 272 272 273 272 274 275 277 277 276 279 278 280 281 282 282 282 283 285 287 289
271 270 269 269 269 268 268 267 267 268 270 271 272 272 272 272 271 272 273 274 273 272 271 272 270 270 271 272 273 274 275 278 279 279 279 280 281 283 283 285 285 286 288
269 268 267 267 267 267 267 267 269 269 270 271 272 271 271 271 271 272 273 273 272 271 272 268 268 269 269 270 271 271 272 273 275 276 279 281 282 283 284 284 287 288 289
269 268 267 267 267 267 268 268 269 269 270 271 270 270 271 270 271 273 273 273 272 271 270 267 267 267 269 269 269 270 271 271 272 274 275 276 279 284 286 286 287 288 289
269 268 268 267 268 267 267 266 267 268 268 269 269 269 270 271 271 272 272 272 270 270 266 266 267 267 268 269 268 270 270 271 271 272 273 275 277 280 286 287 289 290 290
270 269 268 267 267 267 267 268 267 266 266 266 267 268 269 270 270 270 270 269 268 267 265 265 266 266 267 268 268 269 270 270 270 271 272 272 273 275 279 284 288 290 291
269 268 267 266 266 266 266 266 267 267 267 266 265 266 267 268 269 269 269 266 265 265 265 265 265 266 266 267 267 268 270 270 270 270 272 271 271 273 275 279 282 291 291
267 266 266 265 265 264 264 263 264 264 264 264 264 265 265 266 267 266 266 264 263 264 264 264 264 265 266 266 267 267 269 270 269 271 270 270 270 271 272 275 278 282 289
266 265 264 263 262 262 263 263 262 262 263 262 263 263 265 264 263 263 263 263 262 262 262 263 264 265 265 266 267 267 269 269 270 270 269 269 269 270 271 272 275 278 288
264 262 262 262 262 262 262 263 262 262 261 261 261 261 265 262 261 261 261 261 261 261 261 262 262 264 265 266 266 267 269 269 271 269 268 268 269 269 270 272 274 276 288
263 262 262 262 261 261 261 261 261 261 260 260 260 260 261 260 260 260 260 261 262 262 262 261 262 263 264 265 266 268 269 269 270 268 268 268 269 269 270 272 275 278 295
262 262 261 261 261 260 260 260 260 260 260 259 259 259 259 259 259 260 260 261 262 263 263 263 262 263 264 264 266 268 269 270 270 268 268 268 268 269 269 271 274 278 295
262 261 261 260 259 260 259 259 259 259 259 259 259 258 259 259 259 259 260 261 262 263 264 264 264 263 264 264 266 267 270 270 269 268 268 268 268 268 269 271 273 284 296
261 261 260 260 260 260 259 259 259 259 258 259 258 258 259 259 259 259 260 260 261 262 264 265 265 265 266 266 267 269 270 270 269 268 268 268 268 268 268 270 271 277 296
261 261 260 260 260 259 259 259 259 258 258 258 258 258 258 259 259 259 259 260 261 262 263 265 266 266 266 266 268 268 271 270 270 268 267 268 267 268 267 268 269 272 276
Wind_Speed
34 32 30 27 26 23 21 18 15 13 13 14 15 15 16 15 15 17 18 20 21 23 24 27 30 30 32 32 33 34 35 35 19 39 48 45 44 44 43 44 48 45 45
34 32 30 27 26 22 19 17 16 16 14 14 12 14 15 14 15 17 18 19 21 24 26 28 30 28 30 32 33 36 37 38 34 22 45 38 44 44 44 50 50 44 45
32 31 28 27 27 24 21 19 16 15 12 12 12 14 15 14 15 16 18 20 22 25 26 28 31 30 33 33 34 36 36 36 35 35 37 37 41 44 44 44 45 44 44
32 31 29 29 27 24 20 17 15 12 10 11 11 13 14 14 15 17 19 20 24 27 29 30 32 34 35 36 37 38 37 36 33 34 34 35 36 38 39 39 36 38 45
32 31 30 27 26 24 22 17 13 12 11 11 12 13 12 13 14 15 19 23 27 30 31 32 34 36 38 40 40 39 36 35 32 30 27 30 30 30 26 32 31 36 26
33 31 29 29 29 26 20 16 13 12 10 10 11 12 13 13 15 17 22 25 28 30 33 33 35 37 38 40 42 46 45 40 35 30 29 18 31 34 35 33 30 23 7
31 29 28 29 27 21 18 15 13 12 11 12 11 10 12 15 16 18 22 25 29 31 33 36 36 35 37 39 41 43 45 45 47 42 36 35 34 35 34 35 32 29 20
30 28 30 28 26 21 18 15 13 12 10 10 10 10 12 14 16 18 22 26 30 33 35 36 38 42 40 40 41 39 39 40 40 40 42 43 43 42 39 39 39 38 33
28 27 25 26 24 21 18 14 11 8 8 10 8 10 13 17 15 18 23 27 30 35 36 36 38 40 38 44 44 41 40 39 40 45 49 50 48 45 44 37 34 19 14
29 30 30 26 23 18 16 13 9 8 8 6 9 10 13 17 14 19 23 27 32 34 38 35 36 41 41 42 42 40 38 37 36 34 39 41 43 44 44 46 40 16 9
31 32 31 29 26 20 17 13 11 9 7 7 7 9 11 11 15 19 22 27 29 35 35 37 35 40 42 46 45 42 42 40 39 40 38 36 36 33 34 38 40 40 23
34 33 27 27 24 21 18 14 11 8 6 3 5 7 9 12 16 20 24 27 31 31 33 35 37 43 43 41 40 41 32 36 35 32 31 29 29 28 29 35 36 36 30
31 30 29 25 21 18 16 12 9 8 6 3 3 6 9 12 16 21 25 28 30 31 30 36 39 35 36 33 33 33 29 23 26 24 24 28 30 31 30 30 37 38 36
30 28 27 25 19 17 13 11 10 9 6 4 1 4 9 12 16 21 24 26 28 28 29 31 31 29 30 30 28 28 26 25 24 24 22 25 30 29 26 28 24 23 21
31 27 24 21 21 18 13 12 10 7 4 3 1 3 8 11 17 23 26 28 29 29 32 28 27 28 27 28 28 27 27 26 25 25 24 24 27 27 25 26 26 23 17
29 26 24 23 21 19 18 13 9 8 5 3 0 2 6 10 16 20 23 26 24 27 25 23 25 26 26 27 28 28 28 27 26 28 25 23 21 22 20 23 22 21 11
31 28 24 22 22 21 17 16 14 8 7 5 1 3 7 12 13 17 20 22 20 24 20 23 23 26 28 29 30 29 30 30 31 27 26 25 23 23 22 18 23 22 12
29 29 25 22 19 19 18 14 13 12 11 7 2 3 7 10 12 15 19 21 24 26 22 24 25 28 30 30 33 31 34 33 32 29 27 25 23 21 18 15 17 10 11
26 26 25 23 20 19 17 16 13 11 8 6 5 4 8 11 8 12 16 18 19 21 23 26 27 29 30 32 34 33 35 35 35 29 29 25 24 21 18 19 20 23 20
29 27 28 24 23 19 16 14 11 9 7 6 5 5 12 12 12 16 17 18 19 21 24 26 29 30 32 33 35 34 37 37 32 32 30 28 26 23 21 21 21 11 12
32 26 26 24 20 19 17 14 13 11 9 8 4 2 6 6 9 13 17 20 21 24 26 28 30 31 33 36 37 35 40 40 36 34 33 31 29 25 24 24 25 26 27
31 28 25 22 21 19 17 15 13 12 11 9 4 2 2 2 5 11 15 21 24 27 28 28 30 31 32 35 38 36 42 43 43 40 37 34 30 26 25 23 23 23 18
31 29 25 23 20 20 17 15 14 12 11 8 5 1 1 4 8 11 15 21 25 27 31 32 32 33 35 38 38 35 42 45 47 44 40 35 32 30 27 23 21 16 3
26 24 23 22 23 18 15 13 12 14 11 8 4 1 2 6 9 12 15 20 24 27 30 33 34 36 41 41 39 36 41 46 50 47 41 36 34 34 28 24 21 22 6
23 22 21 21 21 17 17 13 12 12 10 8 4 1 3 6 8 11 15 19 23 27 29 33 36 39 42 42 46 40 40 48 54 53 43 39 37 37 33 28 28 21 4
21 20 19 21 18 18 15 14 13 12 11 7 4 1 2 4 8 11 14 19 22 25 28 31 34 38 41 42 46 47 37 48 51 55 48 44 41 40 40 33 35 24 20
Wind_Direction
197 194 191 190 191 195 200 205 216 226 236 249 259 268 272 276 278 278 276 279 281 282 281 280 279 279 278 276 273 270 268 263 263 266 272 281 278 282 282 280 273 273 276
195 192 188 185 185 193 198 203 213 226 238 248 256 262 267 270 275 277 283 284 285 283 282 281 279 281 278 277 275 272 270 269 270 273 275 277 280 277 278 281 280 271 266
191 189 183 185 185 191 196 202 212 225 233 242 251 258 264 271 276 281 281 283 281 280 281 280 281 281 278 275 273 272 271 272 270 269 276 278 280 279 282 281 274 275 272
188 187 184 186 185 189 193 201 213 223 231 244 251 260 269 277 282 286 288 287 287 286 285 283 283 279 278 278 274 270 270 268 268 266 270 273 273 278 276 273 273 270 271
186 186 186 183 181 185 193 199 206 219 236 246 255 265 272 276 281 285 289 291 292 292 290 288 284 281 279 279 276 274 268 264 262 262 265 269 270 276 273 270 270 283 245
184 186 181 176 181 189 189 191 200 218 233 247 255 263 273 280 282 286 291 295 297 296 294 292 288 286 282 283 282 277 270 265 259 256 260 259 264 268 277 281 290 293 270
182 180 174 177 182 183 185 189 199 213 226 242 254 263 276 281 285 292 300 302 298 294 292 291 290 285 286 284 282 281 277 273 268 267 266 265 270 271 273 278 278 280 293
178 171 175 175 178 180 185 192 201 211 224 241 256 272 279 284 288 305 312 307 298 295 292 291 289 289 287 285 283 277 272 272 265 262 263 266 265 267 265 267 272 279 276
175 169 171 177 173 176 185 192 198 207 233 248 270 280 281 291 301 320 319 309 301 299 299 298 295 292 297 298 290 283 274 266 266 267 268 267 258 254 259 262 259 257 265
178 168 173 176 181 181 184 184 193 215 242 258 271 282 290 303 323 323 322 313 306 308 308 309 308 303 303 303 297 291 284 279 279 267 265 268 268 261 260 252 255 258 261
165 165 170 175 175 177 180 178 193 210 230 256 284 293 299 316 322 324 322 319 315 314 317 314 312 310 308 305 300 290 279 276 272 273 273 274 264 248 250 253 248 251 243
156 158 164 170 169 176 176 180 186 196 221 250 283 304 321 328 327 325 324 323 323 323 317 314 309 313 312 310 309 306 290 273 273 263 269 270 270 249 252 250 248 247 238
153 150 161 166 166 171 170 168 174 191 198 208 273 317 327 334 327 323 326 329 329 328 321 319 317 318 318 317 320 319 331 288 279 270 265 267 270 254 252 253 242 245 247
149 152 160 157 158 167 163 170 180 189 187 204 268 322 337 336 327 321 331 333 333 327 330 329 330 324 331 324 326 329 327 319 311 305 295 284 270 270 246 245 245 242 242
150 153 154 155 158 159 164 174 175 182 200 214 240 320 347 332 329 334 338 341 339 332 339 333 333 337 332 335 329 332 329 324 317 310 307 293 298 260 251 243 243 240 239
148 152 158 157 158 159 159 158 169 176 181 171 60 24 347 336 331 335 342 345 344 344 349 335 334 335 330 331 333 329 331 325 322 311 305 299 294 299 262 250 245 238 240
157 156 157 158 156 157 163 163 154 164 178 183 100 52 9 347 338 347 348 348 356 358 356 338 333 332 326 329 332 327 328 325 323 311 309 304 297 293 290 293 240 236 231
154 150 152 155 152 153 152 149 155 163 164 178 155 49 5 349 344 355 354 0 360 3 351 335 334 331 326 328 333 325 328 327 324 311 313 306 297 290 291 286 286 257 239
144 142 147 144 150 147 146 144 147 148 155 147 87 63 2 349 342 355 6 8 353 347 340 333 335 331 327 328 332 324 330 327 321 321 317 308 301 294 285 280 273 269 268
142 152 144 144 142 141 141 143 144 148 143 115 82 35 14 350 353 351 1 353 349 342 336 331 332 331 329 332 333 329 334 333 329 332 321 314 306 298 288 282 274 267 254
140 144 141 143 141 143 148 155 151 152 147 129 126 86 355 341 328 350 350 350 348 342 337 330 327 328 331 335 335 332 340 336 338 336 328 320 311 302 292 279 272 261 258
142 142 144 143 144 145 146 152 149 149 141 128 133 136 305 320 352 357 349 358 358 353 350 339 327 328 330 334 333 336 345 342 344 341 333 325 317 310 298 285 277 274 246
142 140 143 140 142 140 141 152 151 146 131 130 131 205 328 353 18 357 350 358 356 357 355 355 341 336 335 338 339 337 348 346 346 342 335 331 327 324 317 305 296 291 200
136 142 142 137 138 138 146 151 157 132 133 140 141 211 9 9 6 348 350 356 354 356 357 357 355 349 346 342 341 339 350 351 353 348 344 340 338 338 334 328 318 292 148
140 141 139 136 134 141 148 155 135 140 150 140 157 138 13 14 356 347 351 352 352 352 357 359 360 357 356 354 347 346 351 355 358 356 353 352 352 355 352 345 337 337 66
140 137 134 128 134 148 150 141 150 160 147 146 155 112 3 5 347 347 352 349 348 350 353 357 359 0 359 355 356 349 352 359 3 360 360 0 2 4 5 359 357 2 1